Home   Weather   Ensenada   Past weeks

Flag for Mexico Past Weather in Ensenada, Baja California, Mexico — Yesterday and Last 2 Weeks

Now
81 °F

Sunny.


Feels Like: 81 °F
Forecast: 66 / 87 °F
Wind: 12 mph from Northwest

Location: Tijuana International Airport

Current Time: Sep 30, 2016 at 4:57:50 PM

Latest Report: Sep 30, 2016 at 3:50 PM


Visibility: 8 mi

Pressure: 29.98 "Hg

Humidity: 42%

Dew Point: 55 °F

Location of EnsenadaLocation

Past Weather in Ensenada — Graph

°F

Ensenada Temperature Yesterday

Maximum temperature yesterday: 88 °F (at 10:45 AM)
Minimum temperature yesterday: 70 °F (at 8:45 PM)
Average temperature yesterday: 77 °F

High & Low Weather Summary for the Past Weeks

 TemperatureHumidityPressure
High95 °F (Sep 26, 1:49 PM)88% (Sep 17, 11:47 PM)30.07 "Hg (Sep 17, 11:47 PM)
Low57 °F (Sep 16, 3:50 AM)10% (Sep 25, 3:47 PM)29.83 "Hg (Sep 27, 4:49 AM)
Average73 °F57%29.96 "Hg
* Reported Sep 15 3:45 PM — Sep 30 2:51 PM, Ensenada, Weather by CustomWeather, © 2016

Note: Actual official high and low records may vary slightly from our data, if they occured in-between our weather recording intervals... More about our weather records

Advertising

Ensenada Weather History for the Previous 24 Hours

Scroll right to see more
 ConditionsComfort  
Time TempWeatherWind HumidityBarometerVisibility
2:51 PM
Fri, Sep 30
82 °FSunny.10 mph45%29.88 "Hg8 mi
1:51 PM82 °FSunny.8 mph40%30.00 "Hg8 mi
12:55 PM84 °FSunny.12 mph40%30.03 "Hg7 mi
12:04 PM84 °FSunny.10 mph40%30.04 "Hg6 mi
10:48 AM84 °FSunny.3 mph35%30.04 "Hg7 mi
8:51 AM77 °FSunny.3 mph47%30.06 "Hg7 mi
6:52 AM70 °FPartly sunny.No wind64%30.05 "Hg8 mi
5:49 AM68 °FPassing clouds.No wind69%30.04 "Hg5 mi
4:45 AM68 °FClear.No wind69%30.01 "Hg5 mi
2:45 AM72 °FPassing clouds.No wind65%30.04 "Hg5 mi
12:46 AM72 °FClear.No wind65%30.05 "Hg6 mi
11:49 PM
Thu, Sep 29
72 °FClear.No wind65%30.06 "Hg6 mi
10:45 PM72 °FClear.No wind65%30.02 "Hg6 mi
9:45 PM72 °FPassing clouds.No wind69%30.07 "Hg7 mi
8:45 PM70 °FPassing clouds.No wind73%30.06 "Hg7 mi
7:45 PM72 °FPassing clouds.6 mph69%30.05 "Hg8 mi
5:48 PM77 °FBroken clouds.7 mph54%30.03 "Hg8 mi
Weather by CustomWeather, © 2016

See weather overviewHow to use our weather pages